[[{"header":{"parameterUnit":"m.s-1","parameterCategory":1,"la1":30.2991,"la2":30.254,"lo1":-89.0895,"lo2":-89.0444,"dy":0.0017,"dx":0.0017,"nx":28,"ny":28,"refTime":"2024-04-18T21:00:00:Z","depth":0,"parameterNumber":2,"parameterNumberName":"U-component_of_WINDS"},"data":[0,0,0,0,0,0,0,0,0,0,0,0,0,0,0,0,0,0,0,0,0,0,0,0,0,0,0,0,0,0,0,0,0,0,0,0,0,0,0,0,0,0,0,0,0,0,0,0,0,0,0,0,0,0,0,0,0,0,1.2736,1.2737,0,1.2799,1.28,1.28,1.2802,1.2801,1.28,1.28,1.2865,1.2867,1.287,0,0,0,0,0,0,0,0,0,0,0,0,0,1.2619,1.2621,1.2736,1.2737,1.2738,1.2799,1.28,1.28,1.2802,1.2801,1.28,1.2799,1.2864,1.2867,1.287,0,0,0,0,0,0,0,0,0,0,0,0,0,1.2675,1.2622,1.2736,1.2746,1.2747,1.2799,1.28,1.2801,1.2802,1.2801,1.28,1.2799,1.2863,1.2867,1.287,1.2916,0,0,1.2881,1.2883,0,0,0,0,0,0,0,0,1.2671,1.2679,1.2744,1.2745,1.2747,1.2791,1.2782,1.2839,1.2803,1.2781,1.28,1.2798,1.2841,1.2847,1.2861,1.2919,1.2922,1.2882,1.2884,1.2886,1.2887,0,0,0,0,0,0,0,1.2668,1.2676,1.2761,1.2745,1.2747,1.2748,1.2754,1.2793,1.2817,1.2783,1.2783,1.2791,1.2842,1.2857,1.2863,1.2923,1.2882,1.2885,1.2887,1.2889,1.3022,1.3023,0,0,0,0,0,0,1.2662,1.2673,1.2759,1.2763,1.2706,1.2751,1.2758,1.2778,1.2817,1.2821,1.2792,1.2791,1.2852,1.2858,1.2865,1.2921,1.2886,1.2889,1.2891,1.302,1.3022,1.3023,0,0,0,0,0,0,1.2659,1.2669,1.2757,1.2718,1.2729,1.2754,1.2777,1.278,1.2796,1.2823,1.2828,1.2803,1.2851,1.286,1.2903,1.2923,1.2891,1.2894,1.3019,1.3021,1.3023,1.3033,0,0,0,0,0,0,1.2656,1.2668,1.2686,1.2718,1.2731,1.2793,1.2778,1.2782,1.2802,1.2801,1.2835,1.2839,1.2851,1.2898,1.2907,1.2928,1.2897,1.3017,1.302,1.3022,1.3031,1.3035,1.3039,0,0,0,0,0,1.2652,1.2686,1.2687,1.2697,1.2753,1.2795,1.2802,1.2814,1.2803,1.2821,1.2839,1.2838,1.292,1.2902,1.2913,1.2935,1.3016,1.3019,1.3022,1.303,1.3035,1.3039,0,0,0,0,0,0,1.2656,1.2691,1.2691,1.2738,1.2763,1.2795,1.2818,1.2819,1.2848,1.2846,1.2861,1.2868,1.2911,1.2928,1.2907,1.2981,1.2967,1.2972,1.2969,1.2974,1.2978,1.2973,1.29,0,0,0,0,0,1.2662,1.2692,1.2721,1.276,1.2772,1.2793,1.2811,1.2818,1.2845,1.2856,1.2877,1.2903,1.2935,1.2955,1.2986,1.3034,1.3041,1.3054,1.3058,1.3061,1.3065,1.3092,1.3098,1.3033,1.3033,1.3033,0,0,1.2675,1.2698,1.2716,1.2761,1.2781,1.2813,1.2802,1.2835,1.2858,1.2861,1.2903,1.292,1.295,1.2996,1.3017,1.3011,1.3085,1.3065,1.3067,1.307,1.3095,1.3101,1.3107,1.3035,1.3035,1.3035,0,0,1.2715,1.2736,1.277,1.279,1.2821,1.2835,1.2843,1.2875,1.2886,1.2928,1.2931,1.2959,1.3013,1.3035,1.3053,1.3101,1.3102,1.3111,1.3131,1.3156,1.3161,1.3166,1.3183,1.3189,1.3115,1.3115,1.3115,0,1.2728,1.2774,1.2787,1.282,1.284,1.2844,1.2878,1.2898,1.2938,1.2951,1.2943,1.3011,1.3032,1.3083,1.3095,1.3109,1.3119,1.3107,1.316,1.3164,1.3169,1.3185,1.3192,1.3116,1.3116,1.3116,1.3116,0,1.2788,1.2821,1.2845,1.2882,1.2905,1.2939,1.2956,1.2978,1.2983,1.2998,1.3041,1.3066,1.3102,1.3115,1.3121,1.3167,1.3161,1.3157,1.3142,1.3176,1.3191,1.3198,1.3117,1.3117,1.3117,1.3117,0,0,1.2832,1.2876,1.2885,1.2902,1.2937,1.2962,1.2997,1.3031,1.3049,1.3077,1.3106,1.3151,1.3147,1.3168,1.3176,1.3199,1.3235,1.3191,1.3192,1.3198,1.3287,1.329,1.3297,1.3236,1.3237,1.3238,1.3284,0,1.2875,1.2935,1.2948,1.3,1.303,1.3035,1.3065,1.309,1.3104,1.3132,1.3149,1.3181,1.3173,1.3185,1.3208,1.3226,1.3253,1.3223,1.3263,1.3264,1.3254,1.3305,1.3309,1.3351,1.3291,1.3292,1.3293,0,1.2933,1.2962,1.3017,1.3048,1.3061,1.3088,1.3121,1.3147,1.3176,1.3185,1.3208,1.3214,1.325,1.3235,1.3285,1.3264,1.3281,1.3292,1.3294,1.3298,1.328,1.331,1.3365,1.3371,1.3302,1.3302,1.3301,0,1.2959,1.3011,1.3051,1.3066,1.3103,1.3121,1.3138,1.3165,1.3185,1.3214,1.3227,1.326,1.3278,1.3304,1.3319,1.3306,1.3368,1.3353,1.3376,1.3376,1.3388,1.3387,1.3446,1.3401,1.34,1.34,1.34,0,1.3005,1.3039,1.3063,1.3087,1.3125,1.314,1.3177,1.3193,1.3218,1.3245,1.3252,1.3278,1.3296,1.3325,1.3338,1.3377,1.3385,1.3394,1.3396,1.3393,1.3391,1.3404,1.3401,1.3402,1.3402,1.3401,1.3401,0,1.3039,1.3057,1.3101,1.3133,1.3141,1.3168,1.3195,1.3219,1.3234,1.327,1.3279,1.3302,1.3337,1.3354,1.3397,1.3405,1.345,1.3451,1.344,1.3441,1.3462,1.346,1.353,1.354,1.3489,1.3489,1.349,0,1.3067,1.3093,1.3128,1.3147,1.3164,1.3195,1.3215,1.3231,1.3252,1.3286,1.3306,1.3341,1.3369,1.3424,1.3445,1.3478,1.348,1.3503,1.3485,1.348,1.348,1.3478,1.348,1.3505,1.3506,1.3506,1.3507,0,1.3115,1.3123,1.3152,1.3184,1.3209,1.3235,1.3261,1.3276,1.3296,1.332,1.3355,1.3377,1.3421,1.3455,1.349,1.3507,1.351,1.3512,1.3519,1.3515,1.3507,1.3511,1.3448,1.351,1.351,1.351,1.3509,1.3509,1.3147,1.317,1.3198,1.3231,1.3252,1.3276,1.33,1.3318,1.3348,1.3384,1.3392,1.3429,1.3457,1.3504,1.3523,1.3552,1.3547,1.3557,1.356,1.3562,1.3563,1.3503,1.3559,1.3558,1.3558,1.3558,1.3558,0,1.3194,1.3213,1.3243,1.3279,1.3304,1.3305,1.3334,1.3356,1.3388,1.3414,1.3442,1.3482,1.3516,1.354,1.3574,1.3593,1.3595,1.3601,1.36,1.3603,1.3565,1.3555,1.3599,1.3599,1.3599,1.3599,1.3599,1.3599,1.3222,1.3261,1.3272,1.3322,1.3341,1.3377,1.3393,1.3416,1.3436,1.3481,1.3509,1.3524,1.355,1.3586,1.3617,1.3623,1.3635,1.3641,1.3647,1.3611,1.3606,1.3602,1.3593,1.3643,1.3643,1.3683,1.3683,1.3683]},{"header":{"parameterUnit":"m.s-1","parameterCategory":1,"la1":30.2991,"la2":30.254,"lo1":-89.0895,"lo2":-89.0444,"dy":0.0017,"dx":0.0017,"nx":28,"ny":28,"refTime":"2024-04-18T21:00:00:Z","depth":0,"parameterNumber":3,"parameterNumberName":"V-component_of_WINDS"},"data":[0,0,0,0,0,0,0,0,0,0,0,0,0,0,0,0,0,0,0,0,0,0,0,0,0,0,0,0,0,0,0,0,0,0,0,0,0,0,0,0,0,0,0,0,0,0,0,0,0,0,0,0,0,0,0,0,0,0,1.7266,1.7266,0,1.7269,1.7269,1.7269,1.7251,1.7251,1.725,1.725,1.7252,1.7252,1.7253,0,0,0,0,0,0,0,0,0,0,0,0,0,1.7245,1.7246,1.7266,1.7266,1.7266,1.7269,1.7269,1.7269,1.7251,1.7251,1.725,1.725,1.7252,1.7252,1.7253,0,0,0,0,0,0,0,0,0,0,0,0,0,1.7252,1.7246,1.7266,1.7258,1.7257,1.7269,1.7269,1.7269,1.7251,1.7251,1.725,1.7249,1.7251,1.7252,1.7253,1.7272,0,0,1.7255,1.7256,0,0,0,0,0,0,0,0,1.7251,1.7253,1.7259,1.7258,1.7258,1.7259,1.7262,1.727,1.7252,1.7254,1.725,1.7249,1.7255,1.7255,1.7257,1.7272,1.7273,1.7255,1.7256,1.7256,1.7256,0,0,0,0,0,0,0,1.7251,1.7252,1.7267,1.7259,1.7258,1.7254,1.7254,1.7264,1.7258,1.7253,1.7252,1.7253,1.7254,1.7257,1.7257,1.7273,1.7255,1.7256,1.7256,1.7257,1.7304,1.7305,0,0,0,0,0,0,1.7252,1.7252,1.7267,1.7267,1.7253,1.7255,1.7255,1.7259,1.7258,1.7257,1.7253,1.7252,1.7256,1.7256,1.7257,1.728,1.7256,1.7257,1.7257,1.7303,1.7304,1.7305,0,0,0,0,0,0,1.7251,1.7253,1.7267,1.7259,1.7261,1.7256,1.7261,1.726,1.7262,1.7258,1.7257,1.7257,1.7255,1.7256,1.7269,1.728,1.7257,1.7258,1.7302,1.7303,1.7304,1.7325,0,0,0,0,0,0,1.7251,1.7253,1.7261,1.726,1.7261,1.7279,1.7262,1.726,1.7263,1.7262,1.7261,1.726,1.7255,1.7268,1.727,1.728,1.7258,1.7301,1.7303,1.7304,1.7324,1.7327,1.733,0,0,0,0,0,1.725,1.7266,1.7261,1.7263,1.727,1.7279,1.728,1.7274,1.7264,1.7272,1.7269,1.726,1.7278,1.7269,1.7271,1.7282,1.73,1.7302,1.7304,1.7322,1.7326,1.733,0,0,0,0,0,0,1.7268,1.7266,1.726,1.7276,1.7278,1.7276,1.7285,1.7278,1.7282,1.7281,1.7272,1.7272,1.7286,1.7285,1.7275,1.7301,1.7288,1.729,1.7301,1.7305,1.7308,1.7308,1.7259,0,0,0,0,0,1.7274,1.7282,1.7279,1.7294,1.7295,1.729,1.7294,1.7289,1.729,1.7291,1.7289,1.7291,1.7297,1.7301,1.7306,1.7324,1.7323,1.7332,1.7335,1.7338,1.734,1.7349,1.7353,1.7311,1.7311,1.7311,0,0,1.7286,1.7286,1.7291,1.7298,1.7298,1.7306,1.7291,1.73,1.7306,1.7292,1.7304,1.7303,1.7304,1.7319,1.7326,1.7319,1.7352,1.734,1.7342,1.7343,1.7351,1.7355,1.7359,1.7312,1.7312,1.7312,0,0,1.7313,1.7313,1.7326,1.7327,1.7328,1.7325,1.7328,1.7327,1.7326,1.7338,1.7328,1.7335,1.7345,1.7347,1.7349,1.7376,1.7368,1.7378,1.7394,1.7403,1.7407,1.741,1.7419,1.7423,1.738,1.738,1.738,0,1.7328,1.7339,1.7333,1.7343,1.7345,1.7334,1.7346,1.7348,1.7351,1.7353,1.7345,1.7359,1.7358,1.7374,1.7381,1.7383,1.7386,1.7378,1.7407,1.741,1.7412,1.7421,1.7425,1.7381,1.7381,1.7381,1.7381,0,1.7358,1.7366,1.7376,1.7379,1.7383,1.7394,1.7389,1.7394,1.7389,1.7386,1.7398,1.7398,1.7403,1.7407,1.7401,1.7421,1.7417,1.7408,1.7395,1.7418,1.7426,1.7429,1.7383,1.7382,1.7382,1.7382,0,0,1.7395,1.7395,1.7399,1.74,1.7401,1.7408,1.7418,1.7423,1.7428,1.743,1.7439,1.7448,1.744,1.7443,1.7437,1.7446,1.7467,1.7436,1.7436,1.7441,1.7489,1.7495,1.7499,1.7462,1.7462,1.7463,1.7489,0,1.742,1.7438,1.7433,1.7451,1.7459,1.7448,1.7457,1.7459,1.7457,1.7463,1.746,1.7467,1.7456,1.7458,1.7465,1.7463,1.7476,1.7461,1.7469,1.747,1.7469,1.7504,1.751,1.7535,1.7492,1.7493,1.7493,0,1.7452,1.7457,1.7476,1.7476,1.7479,1.7487,1.7492,1.7498,1.7499,1.7497,1.75,1.7493,1.7503,1.749,1.7504,1.7494,1.7497,1.7496,1.7497,1.7497,1.7482,1.7505,1.7542,1.7546,1.7498,1.7498,1.7497,0,1.7477,1.7488,1.7501,1.7502,1.7503,1.7509,1.7509,1.751,1.7514,1.7518,1.752,1.7525,1.7528,1.7532,1.7526,1.7517,1.7541,1.7527,1.7539,1.754,1.7544,1.7544,1.7583,1.7547,1.7547,1.7547,1.7547,0,1.7506,1.7518,1.7512,1.752,1.7533,1.7527,1.754,1.7539,1.754,1.7547,1.7538,1.7545,1.7538,1.7545,1.754,1.7552,1.7554,1.7552,1.7551,1.7553,1.7553,1.7555,1.7553,1.7548,1.7548,1.7547,1.7547,0,1.7536,1.7532,1.7546,1.7545,1.7546,1.7555,1.7555,1.7562,1.7559,1.7569,1.7571,1.7567,1.7574,1.7569,1.7576,1.7573,1.7589,1.7586,1.7589,1.7588,1.76,1.7599,1.7641,1.7646,1.7607,1.7607,1.7608,0,1.7555,1.7564,1.7564,1.7569,1.757,1.7577,1.7581,1.7575,1.7579,1.7582,1.7589,1.7595,1.76,1.7612,1.761,1.7615,1.7611,1.7626,1.7612,1.7614,1.7611,1.7611,1.7612,1.7628,1.7629,1.7629,1.7629,0,1.7588,1.7586,1.7592,1.7597,1.7602,1.7606,1.7609,1.7613,1.7607,1.7613,1.762,1.7624,1.7631,1.7638,1.7642,1.7642,1.7635,1.7634,1.7637,1.7639,1.764,1.764,1.7596,1.7633,1.7633,1.7632,1.7632,1.7632,1.7612,1.762,1.7622,1.7629,1.7631,1.7634,1.7641,1.764,1.7646,1.7651,1.7648,1.7656,1.7658,1.7663,1.7664,1.7671,1.7665,1.7669,1.767,1.7672,1.7673,1.764,1.7672,1.7672,1.7671,1.7671,1.7671,0,1.7645,1.7646,1.7652,1.7657,1.7663,1.7656,1.7659,1.7664,1.7672,1.7674,1.768,1.7688,1.7694,1.7693,1.7698,1.7704,1.7701,1.7705,1.7705,1.7705,1.7678,1.7675,1.7708,1.7708,1.7708,1.7708,1.7708,1.7708,1.7663,1.7675,1.7673,1.7687,1.7688,1.7696,1.7699,1.7702,1.7703,1.7713,1.7719,1.7718,1.7719,1.7724,1.773,1.7729,1.7731,1.7737,1.7736,1.771,1.7707,1.7703,1.77,1.7738,1.7738,1.7762,1.7762,1.7762]}]]